weather.gov     
National Weather Service

Terminal Aerodrome Forecast
NWS Homepage
This page is being discontinued on March 12, 2014.
The same data is available at this site. Please update your bookmarks.
Thank you, and we apologize for the inconvenience.
Please send an email to SR-SRH.Webmaster@noaa.gov with any concerns.


Current Version
Previous Version:    01  02  03  04  05  06  07  08  09  10  11  12  13  14  15  16  17  18  19  20  21  22  23  24  25  26  27  28  29  30  
   31  32  33  34  35  
[Printable]
530
FTUS44 KMAF 231500 AAB
TAFINK
TAF AMD
KINK 231520Z 2315/2412 VRB04KT P6SM OVC002
      TEMPO 2315/2317 6SM BR BKN005
     FM231700 VRB03KT P6SM SKC
     FM231900 21004KT P6SM SCT045 SCT250
     FM240000 12005KT P6SM SKC
     FM241000 06004KT 6SM BR BKN035=


U.S. Dept. of Commerce
NOAA National Weather Service
1325 East West Highway
Silver Spring, MD 20910
E-mail: w-nws.webmaster@noaa.gov
Page last modified: May 16, 2007
NATIONAL WEATHER SERVICE: for Safety, for Work, for Fun - FOR LIFE